Location: Aulus
(42.7909°N, 1.3399°E)
Time: 22:51:19
(UTC+00:00)

Cosmos 1726 Rocket - Pass Details

Date: 19 May 2025
Orbit: 554 x 664 km, 82.5° (Epoch: 12 June)

Event Time Altitude Azimuth Distance (km) Brightness Sun altitude
Rises 20:16:50 0° 191° (S) 2,968 6.8 -10.2°
Reaches altitude 10° 20:19:07 10° 193° (SSW) 2,051 6.0 -10.5°
Maximum altitude 20:23:41 75° 278° (W) 666 3.8 -11.2°
Drops below altitude 10° 20:28:09 10° 5° (N) 2,007 6.7 -11.8°
Sets 20:30:21 0° 7° (N) 2,900 7.5 -12.1°
